Voltar ao catálogo

STARLINK-5366

AtivoComunicaçõesVLEO
NORAD 55499·PAYLOAD·🇺🇸 United States

Lançado Feb 2, 2023 de Cape Canaveral Space Force Station

Loading…

Próximas Passagens (próximas 24 horas)

TLE

AtualizadoSource: CelesTrak SupGP

Época: Sep 15, 2026, 01:41 UTC

1 55499C 23015BC  26258.07062500  .00003024  00000+0  10955-3 0  2585
2 55499  43.0011 349.8749 0001422 265.5194  49.1790 15.27573353    10

Acompanhe STARLINK-5366 em tempo real com AllMySat

Download on the App Store